Location: Roanoke
(37.2710°N, 79.9420°W)
Time: 19:25:11
(UTC-04:00)

Cosmos 1441 Rocket - Visible Passes

Search period start: 24 May 2016 00:00
Search period end: 03 June 2016 00:00
Orbit: 500 x 546 km, 81.1° (Epoch: 23 May)

Date Brightness Start Highest point End Pass type
(mag) Time Alt. Az. Time Alt. Az. Time Alt. Az.
24 May 6.3 01:28:50 10° ENE 01:28:50 10° ENE 01:28:54 10° ENE visible
24 May 5.0 03:03:59 26° NW 03:03:59 26° NW 03:06:11 10° N visible
25 May 5.1 02:51:18 26° NNW 02:51:18 26° NNW 02:53:26 10° N visible
26 May 5.1 02:38:35 27° NNW 02:38:35 27° NNW 02:40:39 10° N visible
27 May 5.2 02:25:52 27° NNW 02:25:52 27° NNW 02:27:52 10° N visible
28 May 5.2 02:13:07 27° N 02:13:07 27° N 02:15:04 10° N visible
29 May 5.3 02:00:22 27° N 02:00:22 27° N 02:02:16 10° N visible
30 May 5.4 01:47:36 26° N 01:47:36 26° N 01:49:25 10° N visible
31 May 5.4 01:34:49 26° N 01:34:49 26° N 01:36:36 10° N visible
01 Jun 5.4 01:22:02 25° NNE 01:22:02 25° NNE 01:23:45 10° N visible
02 Jun 5.4 01:09:12 24° NNE 01:09:12 24° NNE 01:10:54 10° NNE visible
